Showing default

BRO-21, 69007

Orbit data source: Space-Track

BRO-21, 69007 is a payload satellite owned by Unseen Labs (FR) in SSO that was launched on Sun, 03 May 2026 UTC via an FALCON 9 launch vehicle from the Air Force Western Test Range (AFWTR). Payload-class satellites include a variety of spacecraft equipped with specific instruments for various scientific and technological missions. These include communications satellites like Starlink; space stations such as the ISS; scientific satellites like the Hubble; Earth observation satellites from companies like Planet Labs, Umbra, and HawkEye 360; GPS; miniature CubeSats for education and research; and military/defense satellites.

Loading next visibility...
Identifier
69007, 2026-100AD
Orbit
SSO
Country
Flag of FRFR
Related business
Manufacturer
GOMSpace
Mission
Operational Commercial Radar Imaging
Bus & Motor
CUBESAT 8U, Unknown motor
Mass
15 kg wet, ~15 kg dry
Launch date (UTC)
2026-05-03 (3 months ago)
Launch vehicle
FALCON 9
Launch site
Air Force Western Test Range (AFWTR)
Object type
Payload
Rocket body
Debris
Shape & HBR
Box + 2 Pan, 1.1 m
Radar Cross Section
0.688 m², Medium (>0.1 m² and < 1m²)

Expand to show TLE details & history
Last TLE update: 1 day ago

TLE from 1 day ago
0 BRO-21
1 69007U 26100AD  26201.27038182  .00003313  00000-0  14962-3 0  9998
2 69007  97.4002  98.6216 0006549 307.5906  52.4735 15.21646820 11836
Epoch: 2026-07-20T06:29Z
TLE epoch observation values (Epoch: 2026-07-20T06:29:20.989Z)
Latitude
0.00001°
Longitude
63.22731°
Altitude
501.223 km
Speed
7.615 km/s
True Right ascension
06h 34m 29s
True Declination
0° 00' 00"
Sunlit
Object was in daylight at epoch
Visualization orbit readout
Latitude
Unknown
Longitude
Unknown
Altitude
Unknown
Speed
Unknown
Apparent Right ascension
Unknown
Apparent Declination
Unknown
Sunlit
N/A
Visualization observer readout
Local Sidereal Time
05:55:14
Azimuth
Unknown
Elevation
Unknown
Doppler factor
Unknown
Orbital elements
Apogee altitude
502.339 km
Perigee altitude
493.333 km
Semi-major axis
6,875.973 km
Eccentricity
0.00065
Inclination
97.4002°
RAAN
98.6216°
Arg. of periapsis
307.5906°
True anomaly
52.53305°
Mean anomaly
52.4735°
Eccentric anomaly
52.50327°
Mean motion
3.80664 °/min
Orbital period
94.57 mins
BSTAR
0.00014962
Loading maneuver chart data...
Computing Atmospheric mass density...
Loading historical data...
Loading historical data...
Loading historical data...
Loading historical data...
Loading historical data...
Loading historical data...
Loading historical data...

Documentation

Showing up to 5 results
|